Regional Weather Roundup
Issued by NWS Wilmington, NC

Home | Current Version | Previous Version | Text Only | Print | Product List | Glossary On
Versions: 1 2 3 4 5 6 7 8 9 10 11 12 13 14 15 16 17 18 19 20 21 22 23 24 25 26 27 28 29 30 31 32 33 34 35 36 37 38 39 40 41 42 43 44 45 46 47 48 49 50
000
ASUS42 KILM 311513
RWRILM
RWRILM
REGIONAL HOURLY WEATHER ROUNDUP
NATIONAL WEATHER SERVICE WILMINGTON NC
1100 AM EDT MON AUG 31 2015

NOTE: "FAIR" INDICATES FEW OR NO CLOUDS BELOW 12,000 FEET WITH NO
SIGNIFICANT WEATHER AND/OR OBSTRUCTIONS TO VISIBILITY.

...............WFO WILMINGTON COUNTY WARNING AREA...............

......COASTAL NC AND SC COUNTIES......

CITY           SKY/WX    TMP DP  RH WIND       PRES   REMARKS
WILMINGTON     CLOUDY    77  74  90 NW7       30.11R
N MYRTLE BEACH RAIN      75  73  93 S6        30.09S FOG
MYRTLE BEACH   LGT RAIN  73  70  88 SW9       30.11S

......INLAND NC AND SC COUNTIES.......

CITY           SKY/WX    TMP DP  RH WIND       PRES   REMARKS
LUMBERTON      PTSUNNY   76  71  85 SE3       30.11R
ELIZABETHTOWN  CLOUDY    74  73  96 CALM      30.12R
WHITEVILLE     HVY RAIN  75  71  89 CALM      30.11R
FLORENCE       PTSUNNY   77  70  79 N6        30.11R
DARLINGTON     CLOUDY    73  68  83 N5        30.13R

....................REST OF NORTH CAROLINA......................

.........EASTERN NC.........

CITY           SKY/WX    TMP DP  RH WIND       PRES   REMARKS
CAPE HATTERAS  CLOUDY    80  72  76 E5        30.13S
JACKSONVILLE   CLOUDY    73  70  88 W7        30.12R
MOREHEAD CITY  CLOUDY    79  73  82 E6        30.11S
KENANSVILLE    HVY RAIN  73  72  97 W7        30.14R
NEW BERN       RAIN      78  73  84 E3        30.13R
ELIZABETH CITY LGT RAIN  79  69  71 W6        30.15R

.........CENTRAL NC.........

CITY           SKY/WX    TMP DP  RH WIND       PRES   REMARKS
RALEIGH DURHAM CLOUDY    72  68  88 E6        30.13F
ROCKY MOUNT    HVY RAIN  70  69  97 E6        30.16R VSB 3/4
ROANOKE RAPIDS NOT AVBL
FAYETTEVILLE   CLOUDY    75  71  87 E5        30.11R
HOFFMAN        CLOUDY    72  69  90 N3        30.12R

.........WESTERN NC.........

CITY           SKY/WX    TMP DP  RH WIND       PRES   REMARKS
CHARLOTTE      MOSUNNY   78  65  63 N3        30.14S
GREENSBORO     CLOUDY    72  70  93 E5        30.15R
HICKORY        NOT AVBL
BOONE          NOT AVBL
ASHEVILLE      NOT AVBL

.....................REST OF SOUTH CAROLINA.....................

.........EASTERN SC.........

CITY           SKY/WX    TMP DP  RH WIND       PRES   REMARKS
CHARLESTON     CLOUDY    76  74  93 N7        30.06S
BEAUFORT MCAS  PTSUNNY   81  75  82 N9        30.07R
HILTON HEAD    NOT AVBL

.........CENTRAL SC.........

CITY           SKY/WX    TMP DP  RH WIND       PRES   REMARKS
COLUMBIA       CLOUDY    75  67  76 N5        30.12R
ORANGEBURG     CLOUDY    74  68  81 NE8       30.11S
SUMTER SHAW    PTSUNNY   73  69  85 N6        30.09S

.........WESTERN SC.........

CITY           SKY/WX    TMP DP  RH WIND       PRES   REMARKS
GREENVILLE     NOT AVBL
ROCK HILL      SUNNY     78  66  66 N5        30.15R
ANDERSON       SUNNY     77  65  66 CALM      30.15R
CLEMSON        NOT AVBL
GREENWOOD      MOSUNNY   76  66  71 N6        30.16R


...................COASTAL AND OFFSHORE REPORTS..................

................LOCAL PIERS AND NC RESERVE................


STATION/POSITION TIME  SKY/WX   TEMP    WIND        PRES    VSBY
                                AIR SEA DIR/SP/G
                 (UTC)          (F)     (DEG/KT/KT) (MB)    (MI)
JOHNY MRCER PIER NOT AVBL
NC RESRV MASNBRO NOT AVBL
OCEAN CREST PIER NOT AVBL
SPRINGMAID  PIER NOT AVBL


................COASTAL AND OFFSHORE BUOYS................


STATION/POSITION TIME  SKY/WX   TEMP    WIND        PRES    VSBY
                                AIR SEA DIR/SP/G
                 (UTC)          (F)     (DEG/KT/KT) (MB)    (MI)
DIMNDSHOAL 41025 1450            82 84  130/  6/  8 1020.2F
WVE H/P(F/S)=  3/ 9 SWL H/P/D(F/S/D)=  3/120/ 9

CAPE LOOKOUT     1500            79     100/ 13/ 14 1019.1F
ONSLOW BAY 41036 NOT AVBL
ONSLOW BAY 41064 NOT AVBL
ONSLOW BAY 41159 NOT AVBL
5SE WRITBC 41038 NOT AVBL
MASNBO INL 41110 NOT AVBL
WILM HARBR 41108 NOT AVBL
27SE WRITB 41037 NOT AVBL
FRYING PAN 41013 1450            83 82  190/  6/  8 1019.2R
WVE H/P(F/S)=  4/ 9 WND WVE H/P(F/S)=  2/ 4 SWL H/P/D(F/S/D)=  3/120/ 9

SUNST NRSH 41024 NOT AVBL
CAPRS NRSH 41029 NOT AVBL
EDISTO     41004 1450            78 84  190/ 16/ 19 1017.3R
WVE H/P(F/S)=  6/10 WND WVE H/P(F/S)=  5/ 6 SWL H/P/D(F/S/D)=  3/10



..........OFFSHORE BUOYS BEYOND 100 NM OFFSHORE...........
.....IN A TRIANGLE---HAT TO BERMUDA TO BAHAMAS TO HAT.....


STATION/POSITION TIME  SKY/WX   TEMP    WIND        PRES    VSBY
                                AIR SEA DIR/SP/G
                 (UTC)          (F)     (DEG/KT/KT) (MB)    (MI)
150E HAT   41001 1400            82 82  290/  6/  8 1020.9R
W BERMUDA  41048 1450            83 84  260/  8/ 10 1021.6R
WVE H/P(F/S)=  3/10 WND WVE H/P(F/S)=  2/ 4 SWL H/P/D(F/S/D)=  3/ 50/10

ATLANTIC S 41049 1450            84 86   70/  4/  6 1021.4R
WVE H/P(F/S)=  4/ 8 SWL H/P/D(F/S/D)=  3/ 80/ 8

E BAHAMAS  41046 1450            85 86  120/ 12/ 14 1019.4F
WVE H/P(F/S)=  4/ 9 WND WVE H/P(F/S)=  2/ 6 SWL H/P/D(F/S/D)=  3/ 50/ 9

NE BAHAMAS 41047 1450            84 86  100/ 10/ 12 1020.3R
WVE H/P(F/S)=  4/10 WND WVE H/P(F/S)=  2/ 5 SWL H/P/D(F/S/D)=  3/ 60/10

120E CANVRL41010 1420            84 85  150/ 10/ 14 1018.6R

END


USA.gov is the U.S. government's official web portal to all federal, state and local government web resources and services.